Location: Hope
(40.9110°N, 74.9680°W)
Time: 01:10:32
(UTC-04:00)

VELOX 1 - Pass Details

Date: 30 July 2021
Orbit: 626 x 643 km, 98.3° (Epoch: 19 September)

Event Time Altitude Azimuth Distance (km) Brightness Sun altitude
Exits shadow 05:15:04 - 201° (SSW) 2,629 ? -7.3°
Reaches altitude 10° 05:16:51 10° 212° (SSW) 2,020 ? -7.1°
Maximum altitude 05:20:21 23° 265° (W) 1,359 ? -6.5°
Drops below altitude 10° 05:23:54 10° 318° (NW) 2,040 ? -5.9°
Sets 05:26:31 0° 333° (NNW) 2,957 ? -5.5°
